When you browse on this site, cookies collect data to enhance your experience and personalize the content and advertising you see.
Visit our Privacy Policy to learn more. By continuing to use the site, you agree to this use of cookies and data.
  • En España
  • Lista de países
  • Para 7 días
  • Temperatura del agua
  • El tiempo en el mapa
  • Informadores
  • user-avatar
    Iniciar sesión

    Tiempo cada hora Mansa

    Hoy, 28 Febrero, Viernes

    Tiempo Temperatura Precipitaciones Viento Presión Humedad
    00:00 +20°C° 1.2 mm 1 mps 659 mmHg 97%
    01:00 +20°C° 1.2 mm 1 mps 659 mmHg 98%
    02:00 +20°C° 0 mm 1 mps 659 mmHg 99%
    03:00 +20°C° 1.5 mm 1 mps 659 mmHg 98%
    04:00 +20°C° 1.5 mm 1 mps 659 mmHg 98%
    05:00 +20°C° 1.5 mm 1 mps 659 mmHg 98%
    06:00 +21°C° 0.8 mm 1 mps 659 mmHg 98%
    07:00 +19°C° 0.8 mm 0 mps 660 mmHg 97%
    08:00 +19°C° 0 mm 0 mps 661 mmHg 97%
    09:00 +20°C° 0.8 mm 0 mps 661 mmHg 97%
    10:00 +20°C° 0.8 mm 0 mps 661 mmHg 96%
    11:00 +20°C° 0.8 mm 0 mps 661 mmHg 96%
    12:00 +20°C° 0.5 mm 0 mps 660 mmHg 95%
    13:00 +23°C° 0.5 mm 1 mps 660 mmHg 94%
    14:00 +22°C° 0 mm 1 mps 660 mmHg 94%
    15:00 +22°C° 0 mm 1 mps 660 mmHg 94%
    16:00 +22°C° 0 mm 1 mps 659 mmHg 93%
    17:00 +22°C° 0 mm 1 mps 658 mmHg 93%
    18:00 +22°C° 0 mm 1 mps 659 mmHg 93%
    19:00 +21°C° 0 mm 1 mps 659 mmHg 93%
    20:00 +21°C° 0 mm 1 mps 660 mmHg 93%
    21:00 +20°C° 0 mm 1 mps 660 mmHg 94%
    22:00 +20°C° 0 mm 1 mps 660 mmHg 95%
    23:00 +20°C° 0 mm 1 mps 660 mmHg 96%

    Mañana, 29 Febrero, Sábado

    Tiempo Temperatura Precipitaciones Viento Presión Humedad
    00:00 +19°C° 0 mm 1 mps 660 mmHg 96%
    01:00 +19°C° 0 mm 1 mps 659 mmHg 97%
    02:00 +19°C° 0 mm 1 mps 659 mmHg 97%
    03:00 +19°C° 0 mm 1 mps 659 mmHg 97%
    04:00 +19°C° 0 mm 1 mps 659 mmHg 97%
    05:00 +19°C° 0 mm 1 mps 658 mmHg 97%
    06:00 +18°C° 0 mm 0 mps 659 mmHg 94%
    07:00 +19°C° 0 mm 0 mps 660 mmHg 91%
    08:00 +21°C° 0 mm 0 mps 661 mmHg 88%
    09:00 +22°C° 0.9 mm 0 mps 661 mmHg 87%
    10:00 +25°C° 0.9 mm 1 mps 661 mmHg 86%
    11:00 +26°C° 0.9 mm 1 mps 661 mmHg 84%
    12:00 +27°C° 1.7 mm 1 mps 660 mmHg 82%
    13:00 +27°C° 1.7 mm 1 mps 659 mmHg 81%
    14:00 +27°C° 1.7 mm 1 mps 659 mmHg 79%
    15:00 +27°C° 0.9 mm 1 mps 658 mmHg 82%
    16:00 +26°C° 0.9 mm 1 mps 658 mmHg 84%
    17:00 +26°C° 0.9 mm 1 mps 658 mmHg 87%
    18:00 +25°C° 0.6 mm 1 mps 658 mmHg 89%
    19:00 +23°C° 0.6 mm 1 mps 658 mmHg 90%
    20:00 +22°C° 0.6 mm 1 mps 659 mmHg 92%
    21:00 +22°C° 0.2 mm 1 mps 659 mmHg 94%
    22:00 +21°C° 0.2 mm 1 mps 659 mmHg 95%
    23:00 +21°C° 0.2 mm 1 mps 660 mmHg 97%

    Pasado mañana, 1 Marzo, Domingo

    Tiempo Temperatura Precipitaciones Viento Presión Humedad
    00:00 +21°C° 0.8 mm 1 mps 659 mmHg 96%
    01:00 +21°C° 0.8 mm 1 mps 659 mmHg 96%
    02:00 +21°C° 0.8 mm 1 mps 659 mmHg 95%
    03:00 +21°C° 0.7 mm 1 mps 659 mmHg 96%
    04:00 +21°C° 0.7 mm 1 mps 659 mmHg 97%
    05:00 +20°C° 0.7 mm 1 mps 659 mmHg 98%
    06:00 +20°C° 0.8 mm 1 mps 659 mmHg 98%
    07:00 +21°C° 0.8 mm 1 mps 660 mmHg 98%
    08:00 +21°C° 0.8 mm 1 mps 660 mmHg 97%
    09:00 +21°C° 0.7 mm 1 mps 660 mmHg 96%
    10:00 +22°C° 0.7 mm 1 mps 660 mmHg 94%
    11:00 +23°C° 0.7 mm 1 mps 660 mmHg 92%
    12:00 +23°C° 1.1 mm 1 mps 660 mmHg 93%
    13:00 +22°C° 1.1 mm 1 mps 659 mmHg 94%
    14:00 +22°C° 1.1 mm 1 mps 658 mmHg 95%
    15:00 +23°C° 0.1 mm 1 mps 658 mmHg 93%
    16:00 +23°C° 0.1 mm 1 mps 657 mmHg 91%
    17:00 +23°C° 0.1 mm 1 mps 657 mmHg 89%
    18:00 +22°C° 0 mm 1 mps 657 mmHg 92%
    19:00 +21°C° 0 mm 1 mps 658 mmHg 94%
    20:00 +18°C° 0 mm 0 mps 658 mmHg 97%
    21:00 +18°C° 0.4 mm 0 mps 658 mmHg 97%
    22:00 +18°C° 0.4 mm 0 mps 659 mmHg 97%
    23:00 +18°C° 0.4 mm 0 mps 659 mmHg 97%

    2 Marzo, Lunes

    Tiempo Temperatura Precipitaciones Viento Presión Humedad
    00:00 +20°C° 0.6 mm 1 mps 659 mmHg 97%
    01:00 +19°C° 0.6 mm 1 mps 658 mmHg 98%
    02:00 +19°C° 0.6 mm 1 mps 658 mmHg 98%
    03:00 +19°C° 0.9 mm 1 mps 658 mmHg 98%
    04:00 +20°C° 0.9 mm 1 mps 658 mmHg 98%
    05:00 +20°C° 0.9 mm 1 mps 658 mmHg 98%
    06:00 +19°C° 0.6 mm 2 mps 659 mmHg 98%
    07:00 +19°C° 0.6 mm 2 mps 659 mmHg 98%
    08:00 +19°C° 0.6 mm 2 mps 660 mmHg 97%
    09:00 +19°C° 0.5 mm 2 mps 660 mmHg 97%
    10:00 +20°C° 0.5 mm 2 mps 660 mmHg 96%
    11:00 +20°C° 0.5 mm 2 mps 660 mmHg 96%
    12:00 +21°C° 0.4 mm 2 mps 659 mmHg 92%
    13:00 +23°C° 0.4 mm 2 mps 659 mmHg 89%
    14:00 +24°C° 0.4 mm 1 mps 658 mmHg 86%
    15:00 +24°C° 0.8 mm 1 mps 658 mmHg 88%
    16:00 +24°C° 0.8 mm 1 mps 658 mmHg 89%
    17:00 +24°C° 0.8 mm 1 mps 658 mmHg 90%
    18:00 +23°C° 0.9 mm 1 mps 658 mmHg 92%
    19:00 +22°C° 0.9 mm 1 mps 658 mmHg 94%
    20:00 +21°C° 0.9 mm 1 mps 658 mmHg 96%
    21:00 +21°C° 1 mm 1 mps 659 mmHg 96%
    22:00 +20°C° 1 mm 1 mps 659 mmHg 97%
    23:00 +20°C° 1 mm 1 mps 660 mmHg 97%

    3 Marzo, Martes

    Tiempo Temperatura Precipitaciones Viento Presión Humedad
    00:00 +20°C° 1.3 mm 1 mps 659 mmHg 98%
    01:00 +19°C° 1.3 mm 2 mps 659 mmHg 98%
    02:00 +19°C° 1.3 mm 2 mps 659 mmHg 99%
    03:00 +19°C° 0.6 mm 2 mps 659 mmHg 98%
    04:00 +19°C° 0.6 mm 2 mps 659 mmHg 98%
    05:00 +19°C° 0.6 mm 2 mps 659 mmHg 98%
    06:00 +19°C° 0.3 mm 2 mps 660 mmHg 98%
    07:00 +19°C° 0.3 mm 2 mps 660 mmHg 98%
    08:00 +20°C° 0.3 mm 1 mps 661 mmHg 98%
    09:00 +21°C° 0.2 mm 1 mps 661 mmHg 96%
    10:00 +22°C° 0.2 mm 1 mps 661 mmHg 94%
    11:00 +22°C° 0.2 mm 1 mps 661 mmHg 92%
    12:00 +23°C° 0.7 mm 1 mps 661 mmHg 91%
    13:00 +23°C° 0.7 mm 1 mps 660 mmHg 90%
    14:00 +24°C° 0.7 mm 1 mps 660 mmHg 89%
    15:00 +24°C° 0.7 mm 1 mps 659 mmHg 90%
    16:00 +23°C° 0.7 mm 1 mps 659 mmHg 91%
    17:00 +23°C° 0.7 mm 1 mps 659 mmHg 92%
    18:00 +22°C° 0.5 mm 1 mps 659 mmHg 94%
    19:00 +21°C° 0.5 mm 1 mps 659 mmHg 95%
    20:00 +20°C° 0.5 mm 1 mps 659 mmHg 97%
    21:00 +20°C° 0.7 mm 1 mps 660 mmHg 97%
    22:00 +20°C° 0.7 mm 1 mps 660 mmHg 97%
    23:00 +20°C° 0.7 mm 1 mps 660 mmHg 97%

    4 Marzo, Miércoles

    Tiempo Temperatura Precipitaciones Viento Presión Humedad
    00:00 +20°C° 1.8 mm 1 mps 660 mmHg 97%
    01:00 +20°C° 1.8 mm 1 mps 660 mmHg 98%
    02:00 +20°C° 1.8 mm 1 mps 659 mmHg 98%
    03:00 +18°C° 2.8 mm 0 mps 659 mmHg 99%
    04:00 +17°C° 2.8 mm 0 mps 659 mmHg 99%
    05:00 +17°C° 2.8 mm 0 mps 659 mmHg 99%
    06:00 +18°C° 1.3 mm 0 mps 660 mmHg 99%
    07:00 +18°C° 1.3 mm 0 mps 660 mmHg 98%
    08:00 +18°C° 1.3 mm 0 mps 661 mmHg 98%
    09:00 +19°C° 0.2 mm 0 mps 661 mmHg 96%
    10:00 +19°C° 0.2 mm 0 mps 661 mmHg 94%
    11:00 +22°C° 0.2 mm 1 mps 661 mmHg 93%
    12:00 +24°C° 0.5 mm 1 mps 661 mmHg 88%
    13:00 +25°C° 0.5 mm 1 mps 660 mmHg 84%
    14:00 +26°C° 0.5 mm 1 mps 660 mmHg 79%
    15:00 +25°C° 1.1 mm 1 mps 659 mmHg 83%
    16:00 +24°C° 1.1 mm 1 mps 659 mmHg 86%
    17:00 +22°C° 1.1 mm 0 mps 658 mmHg 89%
    18:00 +23°C° 1 mm 1 mps 658 mmHg 91%
    19:00 +22°C° 1 mm 1 mps 659 mmHg 93%
    20:00 +20°C° 1 mm 2 mps 659 mmHg 96%
    21:00 +20°C° 1.7 mm 2 mps 659 mmHg 96%
    22:00 +20°C° 1.7 mm 2 mps 660 mmHg 96%
    23:00 +20°C° 1.7 mm 2 mps 660 mmHg 96%
    Mostrar más